This is the latest recevied weather packets stored in our database for station/object W1GK. If no packets are shown the sender has not sent any weather packets the latest 10 day(s).
| Time | Temp. | Humidity | Pressure | Rain* | Wind** | Luminosity | Snow |
|---|---|---|---|---|---|---|---|
| 1787596197 | 39.44° C | 17% | 1017.6 hPa | 0 mm | - | 805 W/m² | - |
| 1787595597 | 39.44° C | 17% | 1017.8 hPa | 0 mm | - | 777 W/m² | - |
| 1787594998 | 39.44° C | 17% | 1017.9 hPa | 0 mm | - | 765 W/m² | - |
| 1787594397 | 38.89° C | 17% | 1018 hPa | 0 mm | - | 756 W/m² | - |
| 1787593797 | 38.89° C | 17% | 1018 hPa | 0 mm | - | 742 W/m² | - |
| 1787593198 | 38.33° C | 17% | 1018 hPa | 0 mm | - | 733 W/m² | - |
| 1787592598 | 37.78° C | 20% | 1017.9 hPa | 0 mm | - | 710 W/m² | - |
| 1787591997 | 37.78° C | 21% | 1017.9 hPa | 0 mm | - | 694 W/m² | - |
| 1787591398 | 37.22° C | 22% | 1017.9 hPa | 0 mm | - | 657 W/m² | - |
| 1787590798 | 36.67° C | 23% | 1017.9 hPa | 0 mm | - | 673 W/m² | - |
| 1787590196 | 36.11° C | 22% | 1017.8 hPa | 0 mm | - | 649 W/m² | - |
| 1787589597 | 36.11° C | 22% | 1017.8 hPa | 0 mm | - | 638 W/m² | - |
| 1787588997 | 35.56° C | 23% | 1017.7 hPa | 0 mm | - | 292 W/m² | - |
| 1787588397 | 35° C | 23% | 1017.7 hPa | 0 mm | - | 615 W/m² | - |
| 1787587796 | 35° C | 25% | 1017.6 hPa | 0 mm | - | 413 W/m² | - |
| 1787587200 | 33.89° C | 26% | 1017.5 hPa | 0 mm | - | 580 W/m² | - |
| 1787586599 | 33.89° C | 26% | 1017.3 hPa | 0 mm | - | 510 W/m² | - |
| 1787585998 | 33.33° C | 26% | 1017.3 hPa | 0 mm | - | 438 W/m² | - |
| 1787585399 | 32.78° C | 27% | 1017.2 hPa | 0 mm | - | 381 W/m² | - |
| 1787584798 | 32.22° C | 28% | 1017.1 hPa | 0 mm | - | 311 W/m² | - |
| 1787584197 | 32.22° C | 28% | 1017 hPa | 0 mm | - | 120 W/m² | - |
| 1787583597 | 31.67° C | 28% | 1017 hPa | 0 mm | - | 134 W/m² | - |
| 1787582997 | 31.67° C | 27% | 1016.9 hPa | 0 mm | - | 244 W/m² | - |
| 1787582398 | 30.56° C | 27% | 1016.9 hPa | 0 mm | - | 294 W/m² | - |
| 1787581798 | 30° C | 28% | 1016.9 hPa | 0 mm | - | 232 W/m² | - |
* Rain latest hour (hover to see other rain measurements)
** Current wind speed in m/s (hover to see current wind gust speed)